Simultaneous Nadir Overpasses (SNOs) Predictions

Prediction of SNOs between AQUA and GOES-15 Satellite Orbit:

Table of predicted SNOs for the next 14.0 days since TLE Epoch: 2/2/2013
Index Date Time (AQUA) AQUA Lat,Lon GOES-15 Lat,Lon Distance(km) Time Diff (sec)
1 02/04/2013 10:31:59 -0.18,-134.14 -0.07,-134.69 62.01 80
2 02/06/2013 10:19:47 -0.84,-131.18 -0.07,-134.77 408.22 80
3 02/06/2013 22:41:09 -0.31,-136.36 0.07,-134.73 185.72 80
4 02/08/2013 22:28:56 0.35,-133.40 0.06,-134.81 160.43 80
5 02/09/2013 10:50:11 0.75,-138.55 -0.06,-134.89 417.00 80
6 02/11/2013 10:37:58 0.06,-135.59 -0.05,-134.96 70.90 80
7 02/13/2013 10:25:43 -0.55,-132.61 -0.05,-135.04 275.18 80
8 02/13/2013 22:47:06 -0.56,-137.80 0.05,-135.00 318.87 80
9 02/15/2013 22:34:51 0.09,-134.83 0.05,-135.07 26.99 80




NCC Satellite Simultaneous Nadir Overpasses (SNOs) Prediction Service
